This is the latest recevied weather packets stored in our database for station/object KB1FPD. If no packets are shown the sender has not sent any weather packets the latest 1 day(s).
| Time | Temp. | Humidity | Pressure | Rain* | Wind** | Luminosity | Snow |
|---|---|---|---|---|---|---|---|
| 1777992945 | 22.78° C | 58% | 1011.9 hPa | 0 mm | 2.68 m/s, 215° | - | - |
| 1777992644 | 22.78° C | 59% | 1011.9 hPa | 0 mm | 2.24 m/s, 188° | - | - |
| 1777992344 | 22.22° C | 57% | 1011.9 hPa | 0 mm | 2.24 m/s, 202° | - | - |
| 1777992041 | 22.22° C | 61% | 1011.9 hPa | 0 mm | 1.79 m/s, 204° | - | - |
| 1777991744 | 22.22° C | 61% | 1011.9 hPa | 0 mm | 1.79 m/s, 255° | - | - |
| 1777991439 | 22.22° C | 63% | 1011.9 hPa | 0 mm | 1.79 m/s, 153° | - | - |
| 1777991144 | 21.67° C | 62% | 1011.8 hPa | 0 mm | 2.24 m/s, 182° | - | - |
| 1777990841 | 21.67° C | 60% | 1011.9 hPa | 0 mm | 2.68 m/s, 268° | - | - |
| 1777990540 | 21.67° C | 63% | 1011.8 hPa | 0 mm | 2.68 m/s, 209° | - | - |
| 1777990238 | 21.11° C | 61% | 1011.8 hPa | 0 mm | 2.68 m/s, 216° | - | - |
| 1777989937 | 21.11° C | 64% | 1011.9 hPa | 0 mm | 2.24 m/s, 238° | - | - |
| 1777989636 | 20.56° C | 62% | 1012 hPa | 0 mm | 2.24 m/s, 224° | - | - |
| 1777989338 | 20.56° C | 64% | 1012 hPa | 0 mm | 2.24 m/s, 233° | - | - |
| 1777989037 | 20.56° C | 61% | 1012.1 hPa | 0 mm | 2.24 m/s, 255° | - | - |
| 1777988740 | 20° C | 64% | 1012.1 hPa | 0 mm | 2.24 m/s, 243° | - | - |
| 1777988436 | 20° C | 63% | 1012.2 hPa | 0 mm | 2.24 m/s, 211° | - | - |
| 1777988136 | 19.44° C | 65% | 1012.2 hPa | 0 mm | 1.79 m/s, 219° | - | - |
| 1777987839 | 19.44° C | 66% | 1012.2 hPa | 0 mm | 1.79 m/s, 190° | - | - |
| 1777987536 | 18.89° C | 66% | 1012.3 hPa | 0 mm | 1.34 m/s, 224° | - | - |
| 1777987236 | 18.89° C | 67% | 1012.3 hPa | 0 mm | 1.79 m/s, 244° | - | - |
| 1777986940 | 18.89° C | 67% | 1012.3 hPa | 0 mm | 2.24 m/s, 151° | - | - |
| 1777986637 | 18.89° C | 67% | 1012.3 hPa | 0 mm | 1.79 m/s, 165° | - | - |
| 1777986337 | 18.33° C | 67% | 1012.2 hPa | 0 mm | 2.24 m/s, 177° | - | - |
| 1777986036 | 18.33° C | 66% | 1012.2 hPa | 0 mm | 2.68 m/s, 230° | - | - |
| 1777985737 | 17.78° C | 67% | 1012.2 hPa | 0 mm | 2.68 m/s, 224° | - | - |
* Rain latest hour (hover to see other rain measurements)
** Current wind speed in m/s (hover to see current wind gust speed)